Dewpoint
71 70 70 74 75 73 77 73 72 76 78 76 77 74 74 76 73 72 70 73 70 69 65 63 77 78 81 81 76 76 73 75 73 70 76 76 76 74 71 72 73 73 73 74 74 74 75 75 76 76 76 76 77 77 77 77 77 77 77 76 75 73 69 69 67 66 66 65 66 65 66 67 68 69
75 73 70 71 74 72 71 70 70 77 76 74 72 77 74 78 75 74 72 71 72 72 67 65 71 80 75 74 81 76 77 72 73 72 76 74 74 72 69 70 70 71 73 73 73 74 74 75 76 76 76 76 76 75 76 76 77 77 77 76 76 74 71 69 68 67 66 65 65 65 66 66 68 68
73 77 74 77 77 76 74 74 70 74 74 77 77 80 77 79 79 76 75 72 76 72 72 71 68 70 75 71 72 69 72 71 72 72 76 77 72 71 70 70 70 70 72 73 72 73 73 73 73 73 73 73 74 74 75 75 75 76 76 76 76 74 72 70 68 67 67 66 65 65 65 66 67 68
72 76 74 77 76 75 77 74 74 76 76 73 76 76 77 76 77 76 76 72 72 76 72 73 71 69 71 78 76 76 71 67 72 77 75 76 73 73 71 71 71 71 72 72 72 71 71 70 70 71 72 72 73 74 75 75 76 75 76 76 75 73 71 69 69 67 67 66 66 65 66 67 67 68
73 77 76 77 76 78 75 76 72 72 73 77 76 75 79 75 76 75 75 73 73 75 76 75 72 70 70 68 74 72 71 70 75 71 71 75 70 68 67 66 70 71 71 72 71 70 70 69 69 70 71 72 72 74 75 74 74 74 75 75 73 71 71 69 69 68 68 67 66 66 66 66 67 68
72 75 77 76 74 76 74 72 69 69 68 69 69 75 74 78 76 76 75 75 75 73 75 75 76 72 70 69 77 71 70 70 75 71 71 67 67 67 68 67 75 71 71 70 70 70 69 68 68 69 70 71 72 72 73 72 72 72 73 72 70 70 70 69 69 68 67 68 67 66 66 66 67 67
75 74 76 73 73 69 71 73 70 67 68 73 73 70 72 74 74 76 78 77 75 74 74 76 72 73 75 74 72 72 71 74 71 74 71 64 62 64 66 66 61 66 70 70 68 68 69 68 68 68 68 69 70 70 71 70 69 70 69 68 68 69 70 68 68 68 67 67 68 67 67 66 66 66
73 72 74 71 71 72 75 77 77 75 74 74 80 74 78 76 76 77 75 77 77 76 74 76 74 74 74 73 72 70 70 69 72 71 70 72 68 67 65 64 62 66 69 70 68 68 68 68 67 67 67 67 66 66 67 68 67 66 67 67 67 67 67 66 66 67 65 66 66 67 67 67 66 66
75 74 72 72 73 74 74 75 73 71 73 73 75 75 73 76 77 78 78 77 76 75 74 74 74 75 74 73 73 72 70 71 71 75 76 72 70 71 68 63 62 65 66 68 68 67 67 67 67 67 66 65 64 64 65 65 65 65 65 64 64 65 65 65 65 65 64 63 64 65 66 67 66 66
73 72 74 74 73 74 72 71 73 76 76 75 73 73 75 75 76 77 76 77 76 75 75 74 72 74 73 72 74 76 74 71 68 69 71 73 73 73 72 67 62 62 61 59 58 62 64 65 65 66 66 65 64 64 64 65 65 64 63 62 63 65 64 63 64 63 62 62 62 63 65 66 65 66
71 70 70 72 72 72 73 71 71 73 72 70 73 76 76 76 75 74 74 75 75 74 73 72 72 71 73 74 70 70 71 70 70 69 71 72 73 74 75 73 72 64 62 65 65 64 64 65 66 65 64 64 64 64 63 64 64 64 63 61 61 62 62 63 62 62 62 61 60 61 61 62 64 65
71 71 70 69 69 71 73 72 73 74 73 76 73 72 76 77 77 76 75 75 75 74 72 72 70 72 72 72 71 71 71 72 75 76 68 65 72 72 75 72 70 70 70 68 64 64 65 66 67 66 65 65 64 63 63 65 66 66 64 63 63 63 61 62 62 61 61 60 60 60 60 60 62 64
72 71 69 67 67 72 74 72 73 75 77 72 77 78 77 77 76 76 75 73 75 75 73 72 73 72 71 71 72 72 73 70 66 67 72 72 71 70 69 71 73 72 70 70 67 67 69 68 70 71 71 71 70 70 68 68 69 67 64 63 64 63 62 61 61 61 61 60 59 59 59 59 59 60
70 69 68 67 70 69 70 70 75 76 75 76 71 75 76 78 77 77 76 75 74 73 73 72 71 70 68 66 65 66 67 65 71 72 72 71 72 72 72 73 73 75 71 70 72 73 71 69 70 71 70 69 70 69 69 70 69 67 65 64 64 63 63 61 61 60 60 59 59 58 58 58 58 58
72 70 69 67 68 74 76 78 78 76 75 76 76 75 76 76 76 74 74 73 73 74 72 72 71 68 69 69 69 68 63 69 73 73 73 72 73 73 72 71 73 78 74 73 73 73 74 73 71 71 70 69 69 68 78 69 68 66 65 65 64 64 63 63 62 60 59 60 59 59 57 57 57 57
71 69 67 65 62 73 73 75 77 76 75 74 75 75 75 75 75 75 73 73 73 73 71 71 71 70 70 70 70 67 68 73 72 73 74 74 74 74 73 73 72 74 76 75 73 72 73 74 73 72 71 71 70 68 72 65 65 65 65 65 64 64 63 63 63 62 60 60 61 60 59 58 58 57
71 74 75 72 68 65 68 71 73 77 76 76 73 74 75 75 74 70 70 72 74 73 73 71 70 70 70 71 72 73 72 74 74 75 74 74 75 74 74 73 72 73 75 73 72 72 73 74 73 72 72 72 71 70 67 66 65 65 65 65 64 64 64 63 63 63 62 61 60 59 59 59 59 58
70 75 72 72 72 73 75 75 75 75 78 77 76 76 76 75 75 75 71 69 70 72 71 70 70 71 74 73 74 76 77 75 74 75 75 75 73 73 72 73 73 73 74 72 72 72 73 74 73 71 71 71 72 73 69 65 65 64 64 64 64 63 63 63 62 62 62 62 60 59 58 57 57 57
70 71 70 73 72 74 76 77 78 76 73 75 74 77 76 76 76 76 75 75 73 72 71 71 71 71 72 73 75 75 78 77 76 76 74 74 74 74 74 74 74 74 75 75 75 72 72 72 70 70 69 68 70 73 68 67 66 64 63 63 63 63 63 63 62 62 61 61 60 59 58 57 56 56
74 73 72 72 73 74 76 74 71 75 78 77 76 75 75 74 72 70 73 66 67 74 73 75 72 71 69 67 70 71 70 73 77 75 75 74 74 73 73 72 72 72 73 73 72 71 70 71 70 70 71 71 72 72 71 67 67 66 64 63 63 62 61 62 62 62 61 61 60 60 58 56 55 56
72 73 75 74 73 74 74 70 62 65 76 77 74 76 74 73 72 71 70 68 65 65 64 63 64 64 63 63 63 62 63 68 70 73 72 72 73 73 72 72 71 71 72 71 73 73 71 72 71 70 71 72 71 71 71 72 68 66 66 64 63 62 61 61 61 61 61 61 60 60 59 57 56 56
74 73 75 74 72 73 72 61 61 63 73 74 75 74 73 72 71 71 69 69 71 69 69 69 69 68 68 67 66 67 66 64 68 73 72 73 74 73 72 70 71 72 73 73 75 73 72 71 72 72 71 71 72 71 72 73 72 69 70 67 64 61 61 60 60 61 61 60 60 59 58 57 57 58
74 74 74 74 72 70 66 58 59 62 71 71 72 73 72 71 71 71 71 71 71 72 72 73 75 75 75 77 78 77 74 72 74 74 74 75 75 73 72 72 71 70 71 75 76 72 72 71 72 72 71 69 70 72 74 73 73 74 74 73 73 66 61 60 59 59 59 60 59 59 58 56 57 62
72 73 73 70 62 60 59 57 56 57 60 70 71 72 71 71 71 70 70 71 71 72 71 72 73 74 75 76 76 76 76 76 76 79 78 76 75 74 71 71 71 70 71 74 76 73 72 72 72 73 72 69 68 70 72 72 73 73 73 73 74 71 68 64 62 59 58 58 58 58 58 56 57 64
71 72 73 73 63 58 58 56 55 54 57 63 70 71 72 72 69 67 68 70 71 70 71 72 73 74 75 75 74 75 75 74 74 77 76 75 76 75 72 71 70 70 72 75 73 74 72 73 72 72 73 72 71 70 71 72 73 73 73 73 72 73 75 75 73 72 64 58 56 56 56 56 55 62
71 72 71 72 65 58 58 57 54 53 55 59 67 70 63 59 61 68 68 67 67 68 70 70 72 73 73 71 73 73 74 73 73 75 75 75 75 74 75 73 71 71 72 75 71 74 73 73 73 72 72 71 71 71 71 70 71 73 73 73 73 73 75 74 74 75 76 75 71 61 59 56 56 56
72 72 71 72 67 58 56 54 54 53 54 59 64 60 60 59 60 66 67 68 68 68 68 72 74 73 73 72 73 74 73 72 74 73 73 73 73 74 76 76 74 74 75 76 76 75 74 73 74 73 72 72 71 71 71 70 70 72 72 71 71 71 71 72 75 75 75 77 75 66 58 55 55 56
70 69 68 67 58 53 50 50 51 53 57 62 58 57 57 59 63 66 68 66 68 69 70 72 72 72 73 73 73 73 74 74 75 74 73 72 71 73 75 75 75 76 76 76 75 75 75 75 74 74 74 72 71 70 70 71 70 71 71 72 71 71 72 73 72 73 73 75 77 73 68 66 62 59
67 64 57 54 54 54 53 53 53 57 60 56 55 55 56 65 67 69 69 70 71 72 71 71 70 69 69 71 73 72 73 73 73 74 73 71 71 72 73 74 75 75 75 74 74 75 75 74 74 74 74 74 72 71 71 70 71 71 71 70 70 71 71 71 72 74 74 74 74 75 74 72 69 63
61 58 56 55 54 57 59 66 69 70 71 67 63 61 64 67 67 69 71 71 72 71 68 67 67 66 66 67 69 71 71 70 71 71 70 69 68 69 69 69 70 71 71 70 69 72 79 77 75 75 74 74 73 72 71 70 69 70 71 71 71 71 71 72 71 72 73 74 74 74 74 76 76 67
61 63 67 66 63 62 62 63 63 64 65 67 69 70 70 68 68 70 72 71 68 66 64 64 63 63 65 67 69 68 68 69 70 69 69 67 66 67 67 68 68 68 69 69 68 70 77 77 78 76 73 72 72 72 71 71 71 71 72 73 73 71 71 72 72 72 73 74 75 75 75 75 75 74
61 63 65 63 67 67 67 67 67 67 68 68 68 68 65 61 64 66 65 64 62 61 62 63 65 65 68 67 65 65 66 67 68 70 69 68 67 67 67 66 66 65 65 65 64 67 70 74 75 75 74 74 72 72 72 72 72 72 72 73 73 74 75 74 72 72 73 74 73 72 74 75 75 75
61 63 61 62 61 65 67 67 67 66 70 69 67 62 62 59 63 63 60 57 57 58 59 60 63 63 63 63 63 64 64 67 67 69 67 68 67 68 68 66 64 63 62 63 64 64 65 66 68 68 67 67 68 70 72 71 71 71 71 72 72 72 72 72 72 72 73 73 72 73 73 74 74 74
58 62 62 63 63 66 64 62 64 59 59 63 59 60 59 61 59 59 58 58 58 58 60 60 58 58 58 59 62 62 60 61 61 63 63 66 67 66 64 62 63 63 63 63 63 62 63 63 62 61 62 64 65 66 67 68 68 70 73 73 71 71 71 71 70 69 68 67 66 64 64 66 69 72
63 62 61 62 65 66 63 62 62 62 63 59 59 57 62 62 60 59 59 60 62 60 58 58 57 57 58 60 58 55 56 58 58 60 61 60 61 60 60 59 59 61 59 58 59 60 59 58 57 57 58 61 62 65 68 69 70 70 66 66 66 63 61 60 59 59 60 61 61 61 62 64 65 68
63 62 61 61 63 61 58 58 60 56 54 57 59 62 60 59 60 60 60 63 61 60 56 57 56 57 58 56 55 55 56 56 57 58 57 58 57 57 57 58 58 57 57 57 57 56 56 55 56 56 56 57 57 58 60 67 62 59 53 52 53 54 53 55 57 59 60 60 62 63 62 62 63 66
61 61 61 60 60 58 60 61 59 59 58 59 60 59 61 61 59 61 62 63 59 57 57 56 55 55 56 56 56 56 56 57 56 57 56 56 56 56 56 56 56 57 56 56 55 55 56 56 57 58 57 58 58 57 57 59 55 54 55 53 53 53 54 56 58 59 61 63 64 64 65 65 65 66
62 62 60 58 58 58 58 56 56 58 58 59 60 59 57 57 60 62 60 60 57 56 56 55 55 56 55 56 56 56 56 57 56 56 54 55 55 55 55 55 55 54 53 52 54 55 57 58 58 58 59 56 54 53 52 52 51 52 53 56 55 56 58 59 60 60 62 63 64 66 66 64 63 64
61 61 61 60 60 59 58 58 58 59 59 60 58 56 56 56 56 58 58 57 59 57 56 56 56 56 56 57 56 55 55 55 55 54 54 53 54 54 54 53 52 51 51 52 53 55 58 57 56 58 57 54 53 53 52 52 53 55 56 54 58 59 60 61 62 62 61 59 59 60 60 62 61 60
62 61 61 60 60 61 62 59 58 57 57 57 57 57 57 56 56 56 55 55 56 56 57 57 58 56 57 56 55 53 53 54 54 53 53 52 52 52 50 51 51 51 52 52 51 52 53 54 56 55 54 54 55 55 55 55 56 57 59 60 55 58 62 61 58 56 56 58 60 58 56 57 58 60
59 60 58 59 63 63 62 62 59 59 58 58 57 58 58 58 57 55 56 56 58 58 56 57 58 56 54 54 54 52 52 52 52 51 51 51 50 51 51 52 51 51 51 51 51 52 52 55 57 57 59 58 58 58 57 55 54 53 53 54 52 52 52 53 57 58 56 56 55 54 53 54 55 57
57 57 57 57 56 56 56 58 59 59 59 58 56 56 57 58 57 56 56 57 57 56 54 53 53 52 52 53 52 52 52 51 51 50 50 49 49 49 50 49 49 49 49 48 49 50 52 55 57 57 56 55 55 53 51 51 51 51 53 53 55 54 54 53 53 53 55 55 54 54 54 55 57 56
55 55 54 55 54 54 54 54 54 55 56 56 56 57 55 54 55 54 53 54 55 53 52 51 52 52 52 51 52 52 51 50 50 49 49 49 49 48 47 48 48 48 48 48 49 50 51 53 54 54 54 53 53 52 51 51 52 52 52 52 52 53 54 53 53 53 53 54 53 54 55 56 55 55
53 53 52 52 52 53 53 52 52 52 52 52 53 53 52 52 52 53 53 53 52 51 52 51 52 51 52 52 51 50 50 50 49 49 48 48 48 48 47 47 48 48 47 47 47 47 49 51 53 52 50 50 51 50 50 50 49 50 50 51 51 51 51 52 54 53 52 52 52 52 52 53 54 55
51 52 52 51 50 50 50 51 51 50 50 50 50 50 50 50 50 50 51 50 50 49 49 49 49 49 49 50 49 49 49 50 49 49 48 47 46 46 47 46 46 45 44 45 46 48 48 49 49 50 50 50 51 50 50 50 50 50 49 49 49 50 50 50 49 49 50 51 52 52 52 52 53 53